Location: Winthrop
(48.4780°N, 120.1850°W)
Time: 17:54:48
(UTC-07:00)

Explorer 7 - Pass Details

Date: 29 January 2023
Orbit: 478 x 657 km, 50.3° (Epoch: 30 March)

Event Time Altitude Azimuth Distance (km) Brightness Sun altitude
Rises 12:49:34 0° 201° (SSW) 2,699 11.7 23.2°
Reaches altitude 10° 12:52:10 10° 185° (S) 1,847 11.5 23.2°
Maximum altitude 12:55:17 20° 137° (SE) 1,359 9.5 23.1°
Drops below altitude 10° 12:58:32 10° 90° (E) 1,942 9.6 23.0°
Sets 13:01:21 0° 74° (ENE) 2,887 10.2 22.9°
